Wind_Speed
41 37 33 28 23 17 11 13 20 29 39 48 53 57 61 67 75 84 95 105 114 119 119 117 115 112 107 103 99 94 90 87 83 79 74 71 68 65
40 34 30 26 20 15 9 8 13 21 31 41 47 52 55 59 66 75 85 96 106 115 118 118 117 114 110 106 102 97 93 89 85 81 77 73 70 67
38 32 28 24 19 14 9 7 10 17 24 33 40 45 49 52 58 67 76 87 97 108 115 118 117 115 113 109 104 100 96 91 87 83 78 74 71 69
37 31 26 23 19 14 10 8 9 13 20 27 33 39 43 46 52 59 68 78 88 99 109 115 117 116 114 111 107 103 98 94 90 86 80 75 71 69
38 31 26 23 19 15 12 9 9 12 17 22 28 33 38 41 46 52 60 69 79 90 102 111 116 116 115 113 109 105 101 96 91 87 83 78 74 70
39 33 27 23 19 15 12 10 9 11 15 19 24 29 33 36 41 46 53 62 71 82 93 104 111 115 115 113 109 106 102 98 94 90 85 80 75 71
40 35 29 24 20 16 13 10 10 11 14 17 21 25 29 32 36 41 47 55 63 74 85 96 105 111 113 113 111 107 104 100 96 93 88 83 77 73
41 36 31 25 21 18 15 12 11 11 13 16 19 23 26 29 33 38 42 49 56 67 77 88 97 105 110 112 111 108 105 102 98 95 90 85 81 75
41 37 32 27 22 19 16 13 12 12 13 15 18 21 24 27 31 34 39 45 52 61 70 79 91 98 105 109 109 108 106 103 100 96 92 86 82 77
42 39 34 29 24 19 16 14 12 12 13 15 17 20 22 25 28 32 37 42 48 55 64 72 83 90 98 104 106 106 106 103 100 96 93 89 84 79
43 40 36 31 25 21 17 14 12 12 13 15 17 19 22 24 27 31 36 41 46 53 60 66 75 83 91 98 103 105 104 102 99 96 92 90 86 82
44 42 38 33 27 22 18 14 11 11 12 14 17 19 22 23 26 29 34 39 44 51 57 63 70 78 83 90 97 101 102 101 99 96 93 90 86 82
44 42 39 34 29 23 18 14 11 10 11 13 16 19 21 23 25 29 34 39 43 49 55 61 67 73 78 83 89 95 98 98 97 94 92 90 86 82
45 43 40 35 30 24 19 14 10 9 10 12 14 17 21 23 26 30 34 38 42 47 52 58 64 69 74 77 83 88 92 93 93 92 90 88 86 83
45 43 41 37 31 25 20 15 10 8 9 11 13 16 19 22 25 30 34 38 42 46 50 55 61 66 71 74 78 83 87 89 88 89 87 85 84 82
45 42 40 37 32 26 21 15 11 7 8 11 13 15 19 22 25 30 35 39 42 45 49 54 59 65 69 71 74 78 81 82 83 84 83 81 81 80
45 42 39 36 32 27 22 16 11 7 6 9 12 15 19 21 25 31 35 38 41 44 48 53 57 62 67 70 71 73 76 77 80 80 79 76 77 77
46 43 38 34 32 28 22 17 12 7 4 8 12 15 18 22 25 30 35 38 41 43 46 50 54 59 63 66 68 68 70 72 74 76 76 74 74 74
46 43 38 34 31 28 23 18 13 7 2 6 11 15 19 22 26 30 35 38 41 44 45 48 52 56 60 63 65 66 67 69 71 72 73 73 72 71
46 43 38 33 30 28 24 18 13 7 0 6 11 15 19 22 26 31 35 38 41 43 45 46 50 54 57 60 62 64 65 66 68 70 71 70 70 69
45 43 39 33 29 27 24 19 13 6 1 6 11 15 19 22 27 31 35 39 42 43 44 46 49 52 55 58 59 61 62 64 65 65 66 67 68 68
45 43 39 34 29 26 23 19 13 7 2 6 11 15 19 22 26 31 35 39 42 43 44 45 48 51 54 55 56 57 58 60 63 64 63 62 62 63
44 42 39 35 30 26 23 19 14 7 2 7 11 15 19 22 26 31 35 39 42 43 44 45 47 50 52 54 55 56 57 58 60 61 61 60 59 59
Wind_Direction
343 343 343 342 339 330 302 258 234 225 221 220 220 221 221 221 219 218 216 214 212 210 209 209 209 209 209 209 209 209 209 210 211 213 215 217 218 219
348 348 349 349 347 340 319 270 236 225 220 219 220 221 221 221 220 218 217 215 213 210 209 208 208 208 209 209 209 209 209 209 210 212 215 217 218 220
351 351 352 352 350 346 328 285 244 226 220 218 220 221 221 221 220 219 217 216 214 212 209 208 208 208 208 208 208 208 209 209 209 211 213 215 217 220
351 350 350 351 348 341 327 292 253 231 223 219 219 220 221 221 220 218 217 216 214 213 210 208 207 207 207 208 208 208 208 208 209 210 213 214 216 219
352 350 347 346 344 337 324 297 260 239 226 220 220 220 221 221 219 217 216 215 214 213 211 209 207 206 207 207 207 208 208 208 209 210 212 214 215 218
353 350 347 343 341 335 323 300 267 244 229 222 220 220 220 220 218 216 215 214 213 213 212 210 208 206 206 207 207 207 208 208 208 209 211 212 215 218
354 351 346 342 337 331 322 302 273 250 235 225 220 218 218 218 215 213 213 213 212 212 211 210 209 206 206 206 206 207 208 208 208 209 210 212 214 217
355 352 348 342 335 327 321 303 277 255 239 228 219 216 216 216 213 211 210 210 211 210 210 209 209 207 206 206 206 207 208 208 208 209 210 211 213 216
355 353 350 344 337 327 318 304 281 259 241 228 219 216 214 213 211 208 207 207 208 208 208 208 208 207 206 206 206 206 207 208 208 209 210 210 212 215
356 354 351 347 341 332 319 305 284 262 243 228 219 215 213 210 207 205 204 204 204 204 204 205 207 207 206 205 205 206 207 207 208 209 210 211 213 216
357 355 352 349 343 336 325 309 286 262 242 228 218 214 210 208 205 203 202 201 200 200 200 201 204 205 206 206 206 206 207 207 209 209 210 211 213 215
357 356 354 351 346 340 331 314 291 263 243 228 218 213 208 206 203 200 198 197 197 197 198 198 200 202 204 205 205 206 207 208 209 210 210 211 213 214
357 357 355 353 349 343 337 323 298 265 243 229 219 213 209 205 202 197 194 193 194 195 195 196 197 199 201 203 204 206 207 208 208 209 210 212 213 215
357 357 357 355 352 348 341 330 308 270 243 230 221 213 208 204 200 195 192 190 190 192 193 193 195 196 198 200 202 204 206 208 208 209 210 212 213 215
357 357 357 357 355 351 347 336 319 283 245 231 220 210 204 201 197 192 189 188 187 188 189 190 191 193 195 197 200 203 206 207 208 209 210 212 213 215
357 357 357 357 356 354 350 344 328 300 252 228 215 206 200 197 193 190 188 187 186 186 186 187 188 191 192 194 196 199 202 204 206 208 209 211 213 215
358 357 357 357 357 356 354 350 340 313 260 224 210 202 197 194 190 187 185 185 184 184 185 185 187 189 192 193 195 198 200 203 206 208 209 210 212 215
358 357 357 357 358 358 356 353 347 333 265 216 204 198 194 190 186 184 183 183 182 182 182 182 185 187 189 191 192 193 196 199 202 205 208 209 211 214
358 358 358 358 358 358 358 357 354 347 278 197 191 190 188 186 183 182 181 181 181 181 181 182 183 185 187 190 190 191 193 196 199 202 206 208 210 212
359 359 359 358 358 360 1 0 360 1 49 177 180 182 183 183 181 180 180 179 178 179 180 181 183 183 184 186 188 189 191 193 195 199 202 205 207 209
360 0 360 359 360 1 3 3 4 10 90 167 173 176 178 180 180 180 179 178 178 178 178 180 181 182 184 185 185 187 188 188 190 194 199 203 205 207
1 1 2 1 2 3 4 5 7 13 91 163 170 173 176 178 179 179 178 178 178 178 178 179 181 183 185 185 185 186 187 188 189 191 195 199 204 208
1 2 3 4 4 4 5 7 9 15 94 164 169 173 175 176 177 178 178 178 178 178 178 179 181 184 186 187 186 185 186 186 187 189 190 193 197 201
Height
5320 5310 5301 5293 5287 5282 5281 5281 5285 5289 5297 5306 5315 5325 5336 5347 5360 5374 5392 5410 5431 5454 5479 5503 5526 5549 5571 5592 5612 5630 5648 5665 5680 5693 5706 5718 5729 5740
5319 5309 5301 5294 5288 5284 5282 5282 5283 5286 5291 5299 5307 5316 5327 5338 5349 5362 5377 5394 5413 5436 5459 5483 5507 5531 5553 5575 5596 5615 5633 5650 5666 5681 5695 5707 5719 5729
5319 5310 5303 5296 5290 5286 5284 5283 5283 5284 5288 5294 5302 5310 5320 5330 5340 5351 5364 5380 5398 5418 5440 5464 5489 5513 5536 5558 5579 5599 5618 5636 5653 5668 5682 5696 5708 5719
5319 5311 5304 5297 5292 5288 5285 5283 5283 5284 5287 5292 5298 5305 5313 5322 5331 5342 5354 5368 5385 5403 5424 5447 5471 5495 5519 5542 5563 5584 5604 5622 5639 5656 5672 5685 5696 5707
5320 5311 5304 5298 5293 5289 5286 5284 5283 5284 5286 5290 5295 5301 5308 5315 5324 5334 5345 5358 5373 5390 5409 5431 5455 5479 5502 5525 5548 5569 5590 5610 5628 5645 5658 5671 5685 5696
5319 5311 5304 5298 5293 5289 5286 5283 5282 5283 5285 5287 5291 5297 5303 5310 5318 5327 5338 5349 5363 5378 5397 5418 5440 5463 5487 5511 5537 5557 5576 5594 5612 5630 5646 5660 5674 5686
5319 5310 5303 5297 5292 5288 5284 5282 5282 5282 5283 5285 5288 5293 5299 5305 5313 5321 5331 5341 5354 5368 5386 5406 5428 5453 5474 5497 5518 5540 5561 5580 5599 5617 5633 5648 5662 5675
5319 5310 5302 5296 5291 5286 5283 5281 5280 5279 5281 5282 5285 5290 5295 5301 5308 5316 5324 5334 5348 5361 5378 5396 5415 5438 5460 5483 5505 5527 5547 5567 5586 5604 5621 5636 5651 5663
5319 5310 5302 5295 5289 5285 5281 5279 5277 5277 5278 5280 5283 5286 5291 5297 5304 5312 5319 5328 5340 5353 5369 5387 5406 5427 5448 5470 5492 5514 5534 5554 5573 5591 5609 5624 5639 5652
5319 5310 5301 5294 5288 5283 5280 5277 5275 5274 5275 5277 5280 5283 5288 5293 5300 5307 5315 5324 5335 5347 5362 5379 5398 5417 5438 5459 5480 5501 5522 5542 5561 5579 5596 5612 5627 5641
5319 5309 5300 5293 5286 5281 5277 5274 5273 5272 5273 5274 5277 5280 5285 5290 5296 5303 5311 5320 5331 5343 5356 5373 5390 5409 5428 5449 5470 5490 5510 5530 5549 5567 5584 5601 5616 5630
5319 5309 5300 5291 5285 5279 5275 5272 5270 5270 5270 5272 5275 5278 5282 5287 5293 5299 5307 5316 5326 5338 5351 5366 5382 5400 5421 5440 5460 5479 5499 5518 5537 5555 5573 5589 5604 5619
5318 5309 5299 5291 5283 5278 5273 5270 5268 5268 5268 5270 5272 5276 5280 5284 5290 5296 5304 5312 5322 5333 5346 5361 5377 5393 5413 5432 5450 5469 5488 5507 5526 5544 5562 5578 5594 5609
5318 5308 5299 5290 5282 5277 5272 5269 5267 5266 5267 5268 5270 5273 5277 5282 5287 5293 5301 5310 5319 5330 5342 5356 5371 5388 5406 5424 5442 5461 5479 5498 5516 5534 5551 5567 5583 5599
5318 5307 5298 5289 5282 5276 5271 5267 5265 5264 5265 5266 5268 5271 5275 5280 5285 5291 5299 5308 5317 5328 5339 5352 5367 5383 5400 5418 5436 5453 5471 5489 5507 5525 5542 5558 5574 5589
5318 5308 5298 5290 5282 5276 5271 5267 5264 5263 5263 5264 5267 5270 5273 5278 5284 5290 5297 5306 5316 5327 5338 5350 5364 5380 5396 5412 5430 5447 5464 5481 5498 5515 5533 5550 5565 5580
5317 5308 5299 5290 5283 5276 5271 5267 5264 5262 5262 5263 5265 5268 5272 5277 5282 5289 5297 5305 5315 5325 5337 5349 5362 5376 5391 5407 5424 5440 5458 5474 5492 5508 5525 5541 5556 5571
5317 5307 5298 5291 5283 5277 5271 5267 5263 5261 5261 5262 5264 5267 5271 5276 5282 5289 5296 5305 5315 5325 5336 5347 5360 5374 5388 5404 5419 5436 5452 5469 5485 5501 5516 5533 5548 5562
5317 5307 5298 5290 5283 5277 5271 5267 5263 5261 5261 5262 5264 5267 5271 5276 5282 5289 5297 5305 5315 5325 5336 5347 5359 5372 5386 5401 5415 5431 5447 5462 5478 5494 5508 5524 5540 5554
5317 5307 5298 5290 5284 5277 5272 5267 5264 5262 5261 5262 5265 5268 5272 5277 5283 5290 5297 5306 5315 5326 5336 5347 5358 5370 5384 5398 5412 5426 5441 5457 5472 5487 5502 5516 5531 5546
5317 5307 5298 5291 5284 5278 5272 5268 5265 5263 5262 5264 5266 5269 5273 5278 5284 5291 5298 5307 5316 5326 5336 5347 5358 5369 5381 5394 5409 5422 5437 5451 5465 5480 5495 5509 5524 5537
5318 5308 5299 5291 5284 5279 5274 5269 5266 5264 5264 5265 5267 5271 5275 5280 5286 5292 5300 5308 5317 5327 5337 5347 5358 5369 5380 5393 5405 5419 5433 5447 5460 5474 5489 5504 5518 5531
5319 5309 5301 5293 5286 5280 5275 5271 5267 5266 5265 5267 5269 5272 5277 5282 5287 5294 5301 5309 5318 5328 5338 5347 5357 5368 5379 5391 5403 5417 5430 5442 5455 5467 5480 5494 5509 5522